Time,TemperatureF,DewpointF,PressureIn,WindDirection,WindDirectionDegrees,WindSpeedMPH,WindSpeedGustMPH,Humidity,HourlyPrecipIn,Conditions,Clouds,dailyrainin,SoftwareType,DateUTC
2013-03-23 00:22:00,35.0,23.0,29.68,NNW,332,0.0,0.0,61,0.00,,,0.00,,2013-03-23 08:22:00,
2013-03-23 00:31:00,35.0,24.0,29.68,NNW,332,0.0,0.0,63,0.00,,,0.00,,2013-03-23 08:31:00,
2013-03-23 00:42:00,35.0,24.0,29.68,NNW,332,0.0,0.0,63,0.00,,,0.00,,2013-03-23 08:42:00,
2013-03-23 00:52:00,35.0,24.0,29.68,NNW,332,0.0,0.0,63,0.00,,,0.00,,2013-03-23 08:52:00,
2013-03-23 01:01:00,35.0,24.0,29.68,NNW,332,0.0,0.0,63,0.00,,,0.00,,2013-03-23 09:01:00,
2013-03-23 01:11:00,35.0,24.0,29.68,NNW,332,0.0,0.0,63,0.00,,,0.00,,2013-03-23 09:11:00,
2013-03-23 01:21:00,34.0,23.0,29.68,NNW,332,0.0,0.0,63,0.00,,,0.00,,2013-03-23 09:21:00,
2013-03-23 01:32:00,34.0,23.0,29.68,NNW,332,0.0,0.0,64,0.00,,,0.00,,2013-03-23 09:32:00,
2013-03-23 01:53:00,34.0,23.0,29.68,NNW,332,0.0,0.0,64,0.00,,,0.00,,2013-03-23 09:53:00,
2013-03-23 02:02:00,34.0,23.0,29.68,NNW,332,0.0,0.0,65,0.00,,,0.00,,2013-03-23 10:02:00,
2013-03-23 02:22:00,34.0,24.0,29.68,NNW,332,0.0,0.0,66,0.00,,,0.00,,2013-03-23 10:22:00,
2013-03-23 02:33:00,33.0,24.0,29.68,NNW,332,0.0,0.0,68,0.00,,,0.00,,2013-03-23 10:33:00,
2013-03-23 02:42:00,33.0,24.0,29.68,NNW,332,0.0,0.0,68,0.00,,,0.00,,2013-03-23 10:42:00,
2013-03-23 02:52:00,33.0,24.0,29.68,NNW,332,0.0,0.0,70,0.00,,,0.00,,2013-03-23 10:52:00,
2013-03-23 03:02:00,34.0,25.0,29.68,NNW,332,0.0,0.0,70,0.00,,,0.00,,2013-03-23 11:02:00,
2013-03-23 03:21:00,34.0,25.0,29.65,NNW,332,0.0,0.0,70,0.00,,,0.00,,2013-03-23 11:21:00,
2013-03-23 03:32:00,34.0,25.0,29.65,NNW,332,0.0,0.0,70,0.00,,,0.00,,2013-03-23 11:32:00,
2013-03-23 03:41:00,34.0,25.0,29.65,NNW,332,0.0,0.0,70,0.00,,,0.00,,2013-03-23 11:41:00,
2013-03-23 03:52:00,34.0,25.0,29.65,NNW,332,0.0,0.0,69,0.00,,,0.00,,2013-03-23 11:52:00,
2013-03-23 04:01:00,34.0,24.0,29.65,NNW,332,0.0,0.0,67,0.00,,,0.00,,2013-03-23 12:01:00,
2013-03-23 04:12:00,34.0,24.0,29.65,NNW,332,0.0,0.0,67,0.00,,,0.00,,2013-03-23 12:12:00,
2013-03-23 04:21:00,33.0,23.0,29.65,NNW,332,0.0,0.0,66,0.00,,,0.00,,2013-03-23 12:21:00,
2013-03-23 04:32:00,34.0,24.0,29.65,NNW,332,0.0,0.0,66,0.00,,,0.00,,2013-03-23 12:32:00,
2013-03-23 04:42:00,34.0,24.0,29.65,NNW,332,0.0,0.0,66,0.00,,,0.00,,2013-03-23 12:42:00,
2013-03-23 04:53:00,34.0,23.0,29.65,NNW,332,0.0,0.0,64,0.00,,,0.00,,2013-03-23 12:53:00,
2013-03-23 05:01:00,33.0,21.0,29.65,NNW,332,0.0,0.0,62,0.00,,,0.00,,2013-03-23 13:01:00,
2013-03-23 05:21:00,33.0,20.0,29.65,NNW,332,0.0,0.0,59,0.00,,,0.00,,2013-03-23 13:21:00,
2013-03-23 05:32:00,33.0,20.0,29.65,NNW,332,0.0,0.0,59,0.00,,,0.00,,2013-03-23 13:32:00,
2013-03-23 05:53:00,33.0,20.0,29.65,NNW,332,0.0,0.0,58,0.00,,,0.00,,2013-03-23 13:53:00,
2013-03-23 06:02:00,33.0,19.0,29.65,NNW,332,0.0,0.0,56,0.00,,,0.00,,2013-03-23 14:02:00,
2013-03-23 06:21:00,33.0,19.0,29.65,NNW,332,0.0,0.0,55,0.00,,,0.00,,2013-03-23 14:21:00,
2013-03-23 06:31:00,33.0,19.0,29.65,NNW,332,0.0,0.0,55,0.00,,,0.00,,2013-03-23 14:31:00,
2013-03-23 07:02:00,32.0,17.0,29.65,NNW,332,0.0,0.0,54,0.00,,,0.00,,2013-03-23 15:02:00,
2013-03-23 07:22:00,31.0,17.0,29.65,NNW,332,0.0,0.0,55,0.00,,,0.00,,2013-03-23 15:22:00,
2013-03-23 07:33:00,31.0,17.0,29.65,NNW,332,0.0,0.0,56,0.00,,,0.00,,2013-03-23 15:33:00,
2013-03-23 07:52:00,31.0,17.0,29.65,NNW,332,0.0,0.0,56,0.00,,,0.00,,2013-03-23 15:52:00,
2013-03-23 08:02:00,31.0,16.0,29.65,NNW,332,0.0,0.0,53,0.00,,,0.00,,2013-03-23 16:02:00,
2013-03-23 08:22:00,31.0,16.0,29.65,NNW,332,1.0,0.0,54,0.00,,,0.00,,2013-03-23 16:22:00,
2013-03-23 08:32:00,32.0,16.0,29.65,NNW,332,1.0,0.0,52,0.00,,,0.00,,2013-03-23 16:32:00,
2013-03-23 08:53:00,32.0,16.0,29.65,NNW,332,0.0,0.0,52,0.00,,,0.00,,2013-03-23 16:53:00,
2013-03-23 09:02:00,32.0,16.0,29.65,NNW,332,0.0,0.0,52,0.00,,,0.00,,2013-03-23 17:02:00,
2013-03-23 09:32:00,34.0,17.0,29.65,NNW,332,0.0,0.0,50,0.00,,,0.00,,2013-03-23 17:32:00,
2013-03-23 10:23:00,39.0,19.0,29.65,NNW,332,0.0,0.0,44,0.00,,,0.00,,2013-03-23 18:23:00,
2013-03-23 10:32:00,40.0,18.0,29.65,NNW,332,0.0,0.0,40,0.00,,,0.00,,2013-03-23 18:32:00,
2013-03-23 10:52:00,41.0,19.0,29.65,NNW,332,0.0,0.0,40,0.00,,,0.00,,2013-03-23 18:52:00,
2013-03-23 11:02:00,41.0,17.0,29.65,NNW,332,0.0,0.0,37,0.00,,,0.00,,2013-03-23 19:02:00,
2013-03-23 11:22:00,42.0,17.0,29.65,NNW,332,0.0,3.0,36,0.00,,,0.00,,2013-03-23 19:22:00,
2013-03-23 11:32:00,43.0,17.0,29.65,North,3,1.0,0.0,35,0.00,,,0.00,,2013-03-23 19:32:00,
2013-03-23 11:52:00,44.0,19.0,29.65,East,84,1.0,0.0,37,0.00,,,0.00,,2013-03-23 19:52:00,
2013-03-23 12:02:00,43.0,16.0,29.65,East,93,2.0,3.0,33,0.00,,,0.00,,2013-03-23 20:02:00,
2013-03-23 12:22:00,42.0,18.0,29.65,East,92,2.0,0.0,37,0.00,,,0.00,,2013-03-23 20:22:00,
2013-03-23 12:32:00,45.0,18.0,29.65,East,87,2.0,3.0,33,0.00,,,0.00,,2013-03-23 20:32:00,
2013-03-23 12:52:00,46.0,16.0,29.65,East,87,3.0,4.0,30,0.00,,,0.00,,2013-03-23 20:52:00,
2013-03-23 13:22:00,46.0,17.0,29.65,ESE,109,4.0,4.0,31,0.00,,,0.00,,2013-03-23 21:22:00,
2013-03-23 13:32:00,45.0,16.0,29.65,ESE,115,3.0,5.0,31,0.00,,,0.00,,2013-03-23 21:32:00,
2013-03-23 13:53:00,45.0,17.0,29.65,ESE,105,3.0,0.0,32,0.00,,,0.00,,2013-03-23 21:53:00,
2013-03-23 14:02:00,45.0,17.0,29.65,ENE,78,3.0,3.0,32,0.00,,,0.00,,2013-03-23 22:02:00,
2013-03-23 14:22:00,43.0,16.0,29.65,ENE,61,4.0,5.0,33,0.00,,,0.00,,2013-03-23 22:22:00,
2013-03-23 14:32:00,42.0,16.0,29.62,NE,56,4.0,0.0,35,0.00,,,0.00,,2013-03-23 22:32:00,
2013-03-23 14:53:00,44.0,17.0,29.62,NE,55,4.0,0.0,34,0.00,,,0.00,,2013-03-23 22:53:00,
2013-03-23 15:01:00,42.0,16.0,29.62,NE,47,4.0,6.0,34,0.00,,,0.00,,2013-03-23 23:01:00,
2013-03-23 15:22:00,42.0,16.0,29.62,NE,54,4.0,5.0,35,0.00,,,0.00,,2013-03-23 23:22:00,
2013-03-23 15:32:00,41.0,15.0,29.62,ENE,57,4.0,5.0,35,0.00,,,0.00,,2013-03-23 23:32:00,
2013-03-23 15:52:00,41.0,16.0,29.62,NE,52,3.0,6.0,36,0.00,,,0.00,,2013-03-23 23:52:00,
2013-03-23 16:01:00,40.0,18.0,29.62,NE,51,3.0,3.0,40,0.00,,,0.00,,2013-03-24 00:01:00,
2013-03-23 16:22:00,40.0,18.0,29.62,NE,51,4.0,8.0,41,0.00,,,0.00,,2013-03-24 00:22:00,
2013-03-23 16:32:00,40.0,18.0,29.62,NE,50,5.0,6.0,41,0.00,,,0.00,,2013-03-24 00:32:00,
2013-03-23 16:52:00,39.0,18.0,29.62,NE,49,5.0,6.0,42,0.00,,,0.00,,2013-03-24 00:52:00,
2013-03-23 17:02:00,39.0,19.0,29.59,NE,52,4.0,5.0,44,0.00,,,0.00,,2013-03-24 01:02:00,
2013-03-23 17:22:00,39.0,20.0,29.62,NE,52,4.0,6.0,47,0.00,,,0.00,,2013-03-24 01:22:00,
2013-03-23 17:32:00,38.0,20.0,29.59,NE,54,4.0,4.0,47,0.00,,,0.00,,2013-03-24 01:32:00,
2013-03-23 17:52:00,38.0,21.0,29.59,ENE,62,4.0,4.0,49,0.00,,,0.00,,2013-03-24 01:52:00,
2013-03-23 18:02:00,38.0,21.0,29.59,ENE,72,3.0,4.0,49,0.00,,,0.00,,2013-03-24 02:02:00,
2013-03-23 18:21:00,38.0,21.0,29.59,East,88,3.0,4.0,50,0.00,,,0.00,,2013-03-24 02:21:00,
2013-03-23 18:32:00,37.0,21.0,29.59,East,88,3.0,4.0,52,0.00,,,0.00,,2013-03-24 02:32:00,
2013-03-23 18:52:00,36.0,23.0,29.59,East,82,3.0,0.0,58,0.00,,,0.00,,2013-03-24 02:52:00,
2013-03-23 19:01:00,36.0,25.0,29.59,East,91,2.0,4.0,65,0.00,,,0.00,,2013-03-24 03:01:00,
2013-03-23 19:11:00,36.0,25.0,29.59,East,91,2.0,4.0,65,0.00,,,0.00,,2013-03-24 03:11:00,
2013-03-23 19:21:00,35.0,26.0,29.59,East,79,2.0,0.0,69,0.00,,,0.00,,2013-03-24 03:21:00,
2013-03-23 19:32:00,36.0,28.0,29.59,ENE,78,1.0,4.0,72,0.00,,,0.00,,2013-03-24 03:32:00,
2013-03-23 19:42:00,36.0,28.0,29.59,ENE,78,1.0,4.0,72,0.00,,,0.00,,2013-03-24 03:42:00,
2013-03-23 19:53:00,36.0,29.0,29.56,East,82,2.0,4.0,75,0.00,,,0.00,,2013-03-24 03:53:00,
2013-03-23 20:02:00,36.0,29.0,29.56,ENE,70,3.0,5.0,77,0.00,,,0.00,,2013-03-24 04:02:00,
2013-03-23 20:12:00,36.0,29.0,29.56,ENE,70,3.0,5.0,77,0.00,,,0.00,,2013-03-24 04:12:00,
2013-03-23 20:22:00,35.0,29.0,29.56,East,90,4.0,4.0,79,0.00,,,0.00,,2013-03-24 04:22:00,
2013-03-23 20:32:00,35.0,30.0,29.56,ESE,109,4.0,5.0,82,0.00,,,0.00,,2013-03-24 04:32:00,
2013-03-23 20:42:00,35.0,30.0,29.56,ESE,109,4.0,5.0,82,0.00,,,0.00,,2013-03-24 04:42:00,
2013-03-23 20:52:00,35.0,30.0,29.56,East,95,3.0,3.0,83,0.00,,,0.00,,2013-03-24 04:52:00,
2013-03-23 21:02:00,35.0,31.0,29.56,ENE,62,2.0,4.0,85,0.00,,,0.00,,2013-03-24 05:02:00,
2013-03-23 21:12:00,35.0,31.0,29.56,ENE,62,2.0,4.0,85,0.00,,,0.00,,2013-03-24 05:12:00,
2013-03-23 21:22:00,35.0,31.0,29.56,NE,49,3.0,8.0,86,0.00,,,0.00,,2013-03-24 05:22:00,
2013-03-23 21:32:00,35.0,32.0,29.56,NE,50,4.0,0.0,87,0.00,,,0.00,,2013-03-24 05:32:00,
2013-03-23 21:42:00,35.0,32.0,29.56,NE,50,4.0,0.0,87,0.00,,,0.00,,2013-03-24 05:42:00,
2013-03-23 21:52:00,35.0,32.0,29.56,NE,48,5.0,0.0,89,0.00,,,0.00,,2013-03-24 05:52:00,
2013-03-23 22:01:00,35.0,33.0,29.56,NE,50,5.0,5.0,91,0.00,,,0.00,,2013-03-24 06:01:00,
2013-03-23 22:11:00,35.0,33.0,29.56,NE,50,5.0,5.0,91,0.00,,,0.00,,2013-03-24 06:11:00,
2013-03-23 22:21:00,35.0,33.0,29.56,NE,47,4.0,11.0,93,0.00,,,0.00,,2013-03-24 06:21:00,
2013-03-23 22:32:00,35.0,33.0,29.56,NE,52,5.0,8.0,94,0.00,,,0.00,,2013-03-24 06:32:00,
2013-03-23 22:42:00,35.0,33.0,29.56,NE,52,5.0,8.0,94,0.00,,,0.00,,2013-03-24 06:42:00,
2013-03-23 22:52:00,36.0,35.0,29.53,NE,56,5.0,8.0,96,0.00,,,0.00,,2013-03-24 06:52:00,
2013-03-23 23:01:00,36.0,35.0,29.53,NE,50,6.0,0.0,97,0.00,,,0.00,,2013-03-24 07:01:00,
2013-03-23 23:11:00,36.0,35.0,29.53,NE,50,6.0,0.0,97,0.00,,,0.00,,2013-03-24 07:11:00,
2013-03-23 23:22:00,35.0,34.0,29.53,NE,50,5.0,5.0,97,0.00,,,0.00,,2013-03-24 07:22:00,
2013-03-23 23:31:00,35.0,34.0,29.53,ENE,65,3.0,3.0,97,0.00,,,0.00,,2013-03-24 07:31:00,
2013-03-23 23:42:00,35.0,34.0,29.53,ENE,65,3.0,3.0,97,0.00,,,0.00,,2013-03-24 07:42:00,
2013-03-23 23:52:00,35.0,34.0,29.53,ENE,66,3.0,0.0,98,0.00,,,0.00,,2013-03-24 07:52:00,